Hermiston, OR

8:45 PM PDT on June 24, 2017 (GMT -0700)
Hermiston Municipal

Weather History for KHRI - February, 2012

Change the Weather History Date:

Saturday, February 4, 2012

  Actual Average Record
Temperature  
Mean Temperature 26 °F 36 °F  
Max Temperature 34 °F 45 °F 63 °F (2011)
Min Temperature 19 °F 27 °F -25 °F (1950)
Degree Days  
Heating Degree Days 38    
Moisture  
Dew Point 26 °F    
Average Humidity 96    
Maximum Humidity 100    
Minimum Humidity 86    
Precipitation  
Precipitation 0.00 in 0.04 in 0.33 in (1907)
Month to date precipitation 0.18  
Year to date precipitation 1.52  
Sea Level Pressure  
Sea Level Pressure 30.36 in    
Wind  
Wind Speed 3 mph (East)    
Max Wind Speed 7 mph    
Max Gust Speed -    
Visibility 3 miles    
Events Fog    
T = Trace of Precipitation, MM = Missing Value Source: NWS Daily Summary

Daily Weather History Graph

Daily Weather History Graph

Search for Another Location

Airport or City:

Trip Planner

Search our weather history database for the weather conditions in past years. The results will help you decide how hot, cold, wet, or windy it might be!

Date:

Astronomy

Feb. 04, 2012 Rise Set
Actual Time 7:15 AM PST 5:06 PM PST
Civil Twilight 6:44 AM PST 5:38 PM PST
Nautical Twilight 6:08 AM PST 6:13 PM PST
Astronomical Twilight 5:33 AM PST 6:48 PM PST
Moon 2:03 PM PST (2/4) 4:51 AM PST (2/4)
Length of Visible Light 10h 54m
Length of Day
9h 51m
Waxing Gibbous, 89% of the Moon is Illuminated
Feb 4
Waxing Gibbous
Feb 7
Full
Feb 14
Last Quarter
Feb 21
New
Feb 29
First Quarter

Hourly Weather History & Observations

Time (PST) Temp. Windchill Dew Point Humidity Pressure Visibility Wind Dir Wind Speed Gust Speed Precip Events Conditions
12:53 AM 24.1 °F 18.2 °F 21.9 °F 91% 30.39 in 8.0 mi ESE 4.6 mph - N/A   Clear
1:53 AM 24.1 °F 19.7 °F 21.9 °F 91% 30.39 in 10.0 mi SE 3.5 mph - N/A   Clear
2:43 AM 19.4 °F 14.3 °F 19.4 °F 100% 30.36 in 8.0 mi ESE 3.5 mph - N/A   Scattered Clouds
2:53 AM 21.0 °F 16.2 °F 19.0 °F 92% 30.38 in 9.0 mi East 3.5 mph - N/A   Mostly Cloudy
3:38 AM 21.2 °F 16.4 °F 19.4 °F 93% 30.37 in 1.5 mi ESE 3.5 mph - N/A   Overcast
3:46 AM 24.8 °F 20.5 °F 23.0 °F 93% 30.37 in 0.2 mi ESE 3.5 mph - N/A Fog Light Freezing Fog
3:53 AM 26.1 °F 21.9 °F 26.1 °F 100% 30.38 in 0.2 mi ESE 3.5 mph - N/A Fog Light Freezing Fog
4:53 AM 28.0 °F 24.2 °F 27.0 °F 96% 30.38 in 0.8 mi ESE 3.5 mph - N/A   Mist
5:03 AM 26.6 °F 21.2 °F 26.6 °F 100% 30.36 in 1.5 mi East 4.6 mph - N/A   Overcast
5:44 AM 28.4 °F 23.3 °F 28.4 °F 100% 30.37 in 0.8 mi East 4.6 mph - N/A   Mist
5:53 AM 28.0 °F 22.8 °F 28.0 °F 100% 30.39 in 1.2 mi ENE 4.6 mph - N/A   Overcast
6:03 AM 28.4 °F 21.2 °F 26.6 °F 93% 30.37 in 3.0 mi East 6.9 mph - N/A   Overcast
6:53 AM 28.0 °F 24.2 °F 27.0 °F 96% 30.40 in 3.0 mi ESE 3.5 mph - N/A   Overcast
7:20 AM 28.4 °F 21.2 °F 26.6 °F 93% 30.38 in 1.8 mi NE 6.9 mph - N/A   Overcast
7:33 AM 28.4 °F 22.2 °F 28.4 °F 100% 30.38 in 0.8 mi NE 5.8 mph - N/A   Overcast
7:53 AM 28.9 °F 22.8 °F 28.0 °F 96% 30.40 in 0.2 mi ENE 5.8 mph - N/A Fog Light Freezing Fog
8:02 AM 28.4 °F 23.3 °F 28.4 °F 100% 30.38 in 2.0 mi ENE 4.6 mph - N/A   Overcast
8:09 AM 28.4 °F 21.2 °F 28.4 °F 100% 30.38 in 0.8 mi NE 6.9 mph - N/A   Mist
8:53 AM 28.9 °F 25.2 °F 28.9 °F 100% 30.42 in 1.2 mi East 3.5 mph - N/A   Overcast
9:24 AM 28.4 °F - 28.4 °F 100% 30.40 in 2.0 mi Calm Calm - N/A   Overcast
9:41 AM 28.4 °F - 28.4 °F 100% 30.40 in 3.0 mi Calm Calm - N/A   Overcast
9:53 AM 28.9 °F 22.8 °F 28.9 °F 100% 30.42 in 3.0 mi East 5.8 mph - N/A   Overcast
10:19 AM 30.2 °F 26.7 °F 28.4 °F 93% 30.40 in 1.8 mi NE 3.5 mph - N/A   Overcast
10:50 AM 30.2 °F 24.3 °F 30.2 °F 100% 30.40 in 3.0 mi ENE 5.8 mph - N/A   Overcast
10:53 AM 30.0 °F 25.2 °F 30.0 °F 100% 30.42 in 3.0 mi ENE 4.6 mph - N/A   Overcast
11:53 AM 30.9 °F - 30.0 °F 96% 30.40 in 7.0 mi Calm Calm - N/A   Overcast
12:53 PM 32.0 °F - 30.9 °F 96% 30.38 in 9.0 mi Calm Calm - N/A   Overcast
1:04 PM 32.0 °F - 30.2 °F 93% 30.35 in 10.0 mi Calm Calm - N/A   Overcast
1:53 PM 33.1 °F - 30.9 °F 92% 30.36 in 10.0 mi Calm Calm - N/A   Overcast
2:44 PM 33.8 °F 30.8 °F 30.2 °F 87% 30.33 in 10.0 mi SSW 3.5 mph - N/A   Scattered Clouds
2:53 PM 34.0 °F - 30.9 °F 89% 30.35 in 10.0 mi Calm Calm - N/A   Partly Cloudy
3:53 PM 36.0 °F 32.1 °F 30.9 °F 82% 30.34 in 10.0 mi WSW 4.6 mph - N/A   Clear
4:53 PM 32.0 °F 28.7 °F 28.9 °F 88% 30.33 in 10.0 mi South 3.5 mph - N/A   Clear
5:53 PM 28.0 °F - 27.0 °F 96% 30.33 in 7.0 mi Calm Calm - N/A   Clear
6:45 PM 28.4 °F 23.3 °F 26.6 °F 93% 30.31 in 1.8 mi ENE 4.6 mph - N/A   Clear
6:53 PM 27.0 °F 21.6 °F 27.0 °F 100% 30.34 in 1.8 mi East 4.6 mph - N/A   Clear
6:56 PM 26.6 °F 21.2 °F 26.6 °F 100% 30.31 in 3.0 mi East 4.6 mph - N/A   Clear
7:12 PM 26.6 °F 21.2 °F 26.6 °F 100% 30.31 in 1.8 mi ENE 4.6 mph - N/A   Clear
7:20 PM 26.6 °F 21.2 °F 26.6 °F 100% 30.31 in 0.5 mi ENE 4.6 mph - N/A Fog Light Freezing Fog
7:27 PM 26.6 °F 22.6 °F 26.6 °F 100% 30.31 in 2.5 mi ENE 3.5 mph - N/A   Clear
7:34 PM 26.6 °F - 26.6 °F 100% 30.31 in 4.0 mi Calm Calm - N/A   Clear
7:37 PM 24.8 °F - 24.8 °F 100% 30.31 in 1.8 mi Calm Calm - N/A   Clear
7:46 PM 24.8 °F - 24.8 °F 100% 30.31 in 3.0 mi Calm Calm - N/A   Clear
7:53 PM 27.0 °F - 26.1 °F 96% 30.33 in 6.0 mi Calm Calm - N/A   Clear
8:53 PM 26.1 °F - 25.0 °F 96% 30.35 in 2.5 mi Calm Calm - N/A   Clear
9:03 PM 24.8 °F - 24.8 °F 100% 30.32 in 4.0 mi Calm Calm - N/A   Clear
9:16 PM 23.0 °F - 23.0 °F 100% 30.32 in 1.5 mi Calm Calm - N/A   Clear
9:26 PM 24.8 °F - 23.0 °F 93% 30.32 in 0.8 mi Calm Calm - N/A   Clear
9:33 PM 24.8 °F - 24.8 °F 100% 30.33 in 1.5 mi Calm Calm - N/A   Clear
9:37 PM 26.6 °F - 24.8 °F 93% 30.32 in 3.0 mi Calm Calm - N/A   Clear
9:53 PM 24.1 °F 19.7 °F 23.0 °F 96% 30.35 in 6.0 mi SSE 3.5 mph - N/A   Clear
10:24 PM 24.8 °F - 21.2 °F 86% 30.33 in 1.8 mi Calm Calm - N/A   Clear
10:33 PM 24.8 °F - 23.0 °F 93% 30.33 in 0.2 mi Calm Calm - N/A Fog Light Freezing Fog
10:53 PM 24.1 °F - 21.9 °F 91% 30.36 in 0.2 mi Calm Calm - N/A Fog Light Freezing Fog
11:00 PM 24.8 °F - 21.2 °F 86% 30.34 in 1.2 mi Calm Calm - N/A   Partly Cloudy
11:03 PM 24.8 °F - 21.2 °F 86% 30.34 in 3.0 mi Calm Calm - N/A   Clear
11:28 PM 23.0 °F - 21.2 °F 93% 30.34 in 1.5 mi Calm Calm - N/A   Clear
11:37 PM 21.2 °F - 19.4 °F 93% 30.34 in 0.2 mi Calm Calm - N/A Fog Light Freezing Fog
11:53 PM 21.9 °F - 21.0 °F 96% 30.37 in 0.5 mi Calm Calm - N/A Fog Light Freezing Fog